Dewpoint
25 23 22 23 24 24 23 24 26 25 22 20 20 20 21 22 23 23 22 22 22 22 23 25 25 26 26 28 29 30 31 31 31 33 34 36 34 35 36 36 36 35 35
24 23 25 27 24 23 23 24 25 25 23 21 22 21 20 21 22 22 21 22 21 21 21 22 24 25 26 27 27 29 29 31 32 30 30 31 31 32 32 33 33 34 32
24 25 27 26 25 24 23 24 25 25 25 21 23 23 21 20 20 20 21 21 21 20 21 21 21 23 24 26 26 27 28 30 30 30 28 29 30 31 31 30 28 31 31
28 28 28 27 25 24 24 24 23 23 23 21 22 23 22 21 19 19 19 19 20 20 20 19 20 20 22 23 24 26 27 28 29 28 25 25 26 28 29 28 25 24 25
29 29 28 26 24 22 23 21 21 22 21 18 19 20 19 18 19 20 19 18 18 19 17 14 17 18 18 20 20 22 24 24 25 25 24 23 22 23 22 25 26 24 24
27 26 26 24 22 22 21 21 22 21 23 23 21 23 23 19 19 19 19 19 16 16 17 16 11 13 14 16 17 17 18 20 21 21 20 20 20 22 25 24 24 25 23
25 24 24 23 21 22 22 22 23 23 22 22 23 23 23 21 19 19 20 21 20 19 18 17 14 12 9 8 12 15 16 16 16 15 15 16 18 20 24 22 23 22 19
21 22 23 21 20 21 22 22 22 22 22 22 22 23 23 20 18 18 20 21 21 20 18 18 16 15 13 11 12 14 15 14 15 16 15 14 15 18 19 16 15 16 14
18 19 21 19 19 20 20 21 23 23 23 22 23 22 22 20 18 18 20 20 20 19 18 16 16 15 13 12 12 11 13 14 14 13 13 13 12 13 16 14 15 13 13
19 18 17 14 14 18 20 21 23 23 22 23 23 22 22 21 17 18 19 18 19 19 19 17 14 13 13 12 13 12 11 12 13 14 14 15 14 13 13 14 15 12 14
21 19 15 11 13 17 20 20 21 21 21 21 22 22 22 24 19 16 17 19 18 17 18 17 15 12 12 11 12 12 11 14 14 14 14 14 14 13 13 12 12 12 11
24 22 20 19 19 19 20 20 19 19 19 19 18 18 19 22 20 17 16 15 15 16 16 16 14 12 11 10 11 10 11 13 14 13 13 12 12 12 13 12 11 11 10
24 24 23 23 23 24 22 22 21 20 19 18 15 17 18 20 19 18 16 15 14 15 14 12 10 10 10 11 9 9 11 12 12 11 11 11 10 9 8 9 10 9 9
24 24 24 24 25 24 23 23 22 22 21 20 18 18 19 19 19 19 17 16 13 13 11 11 9 9 9 9 11 10 10 9 9 10 9 8 7 5 4 3 4 5 6
22 23 22 23 23 23 23 22 22 23 22 21 21 19 18 18 19 19 18 17 15 13 12 11 10 8 8 8 8 7 6 5 6 7 7 7 6 5 2 2 2 3 3
18 19 21 21 22 22 22 24 24 25 23 22 20 20 18 19 15 14 13 11 10 8 9 9 10 10 8 6 7 6 5 4 3 3 4 4 4 4 4 3 3 3 1
16 17 19 20 20 20 20 21 21 23 24 22 17 16 17 17 15 14 13 12 10 8 9 9 9 9 6 3 3 2 3 3 2 2 3 3 5 4 4 3 3 2 1
17 18 20 20 20 20 20 20 20 20 19 19 15 15 17 17 18 16 12 11 7 6 6 7 7 6 1 -0 -0 0 2 3 2 1 3 3 4 3 4 2 1 2 0
20 20 23 23 23 22 22 21 20 19 19 18 17 16 20 21 18 15 12 11 8 6 3 1 4 1 -1 -3 4 4 4 3 2 3 3 1 3 2 1 1 2 1 1
25 25 25 24 24 22 21 20 20 20 19 18 16 16 17 18 16 15 15 13 10 6 3 1 -1 -0 1 2 5 4 4 3 1 0 2 2 3 2 1 1 1 1 -1
25 24 24 23 22 22 21 20 19 19 17 15 15 16 16 14 13 12 10 11 9 6 7 3 2 4 4 3 -0 2 -0 1 -0 -1 -0 -1 0 1 -0 0 0 -1 -2
24 23 22 22 21 20 19 19 18 17 14 14 16 19 15 14 14 12 12 11 9 7 7 5 2 2 1 -0 1 3 1 1 0 -1 -1 -2 -2 -1 -1 -1 -1 -0 -1
24 22 21 21 19 19 19 17 18 17 15 17 17 16 15 15 15 13 13 13 10 8 6 6 6 3 3 2 2 1 0 -1 -1 -2 -2 -2 -3 -2 -1 -1 -2 -2 -2
23 23 20 19 19 18 19 19 19 17 17 19 19 17 16 16 17 16 15 12 10 10 8 6 4 3 2 2 2 1 -2 -1 -2 -3 -5 -3 -3 -4 -3 -3 -3 -3 -3
23 22 20 20 19 19 19 20 20 19 19 20 20 19 18 17 16 15 14 12 10 10 8 6 4 2 0 -0 0 -1 -1 -2 -4 -6 -4 -4 -4 -5 -4 -5 -4 -4 -4
23 22 21 20 20 20 21 21 21 21 20 21 20 20 18 16 16 15 12 11 9 8 7 5 4 2 1 -1 -2 -2 -3 -4 -5 -7 -4 -4 -4 -4 -4 -4 -5 -5 -5
Wind_Speed
16 13 11 10 8 7 7 7 7 6 6 6 6 6 8 8 9 9 9 10 11 12 14 16 20 19 14 14 13 12 9 8 8 3 9 12 14 16 16 17 19 22 27
17 15 13 11 10 8 8 8 7 6 5 5 5 7 9 8 8 9 9 10 12 14 16 17 20 19 18 16 14 14 12 11 5 7 9 12 13 13 14 16 16 18 21
18 16 14 12 11 10 9 8 7 6 5 4 5 8 8 8 8 8 8 9 10 12 15 17 19 21 22 18 17 16 14 12 14 10 8 10 10 12 10 14 17 16 19
16 16 14 13 12 10 9 8 8 6 5 4 5 6 7 8 9 8 7 8 9 11 12 15 18 21 24 21 18 17 16 13 13 12 13 11 10 8 10 10 14 15 14
16 14 13 13 12 11 10 9 8 6 5 5 5 5 7 10 11 7 8 8 10 10 12 13 15 17 22 26 21 20 18 16 15 14 14 14 14 13 13 10 8 11 19
16 15 15 14 12 12 11 10 9 8 7 6 7 7 9 9 10 11 8 10 12 12 12 12 13 15 14 20 24 28 27 19 19 15 15 12 15 12 13 12 9 6 3
17 16 16 15 14 13 12 11 11 10 9 9 9 8 9 9 8 9 9 11 12 13 13 13 13 15 14 14 17 20 26 26 25 18 19 18 13 13 11 12 12 12 9
20 18 17 16 15 14 13 13 12 11 10 9 8 7 8 7 6 8 9 11 12 14 14 13 14 15 16 13 14 16 19 22 22 18 20 20 19 13 8 6 6 9 10
22 21 19 17 16 16 15 15 13 12 10 9 8 7 7 7 5 5 5 8 10 12 15 16 14 15 16 13 12 14 15 15 14 17 19 20 24 27 23 11 10 2 7
23 22 20 20 19 17 16 15 13 11 10 9 8 6 4 8 5 4 2 5 6 8 10 12 17 16 17 16 13 12 15 14 12 13 14 16 19 22 25 22 16 14 7
20 21 21 20 19 18 17 14 14 13 11 9 9 7 5 6 7 6 5 4 4 5 7 9 12 14 16 17 16 14 11 8 10 11 12 14 15 17 18 18 19 17 13
19 20 19 18 17 17 17 14 14 12 11 10 9 9 7 7 8 8 8 7 4 6 6 7 8 11 14 14 13 13 11 9 10 11 12 14 15 14 13 13 13 14 14
21 20 20 18 16 16 17 16 14 12 11 10 9 8 8 7 8 9 8 7 6 7 7 9 7 6 6 9 13 12 11 10 10 11 11 11 11 10 10 9 8 6 10
22 21 20 19 18 17 15 15 13 13 11 10 9 9 9 9 8 7 7 7 7 7 6 5 5 4 5 5 6 9 10 10 10 9 9 8 7 8 10 9 9 8 8
21 19 20 19 19 17 15 14 13 12 11 11 9 9 10 10 8 6 6 6 4 5 4 3 2 2 4 5 7 8 9 9 9 9 8 8 8 8 9 9 9 8 9
22 20 19 19 19 17 16 14 3 7 8 4 5 7 6 8 14 11 10 9 8 5 3 3 3 3 4 5 5 6 7 8 9 8 8 8 8 9 8 9 9 9 9
21 20 19 18 18 17 17 15 13 7 10 9 11 11 11 14 15 14 12 10 6 4 3 2 3 3 3 4 4 5 6 7 6 7 7 8 8 7 7 8 8 9 8
19 19 18 17 17 16 15 15 13 14 14 12 11 11 12 16 18 14 13 11 6 3 3 3 3 2 2 3 3 4 5 5 6 6 7 7 7 6 7 7 8 8 8
19 18 16 15 14 14 14 14 14 14 13 13 13 11 12 18 17 15 13 4 4 5 4 4 3 3 2 3 3 4 3 4 5 4 5 5 6 6 6 6 6 4 7
15 16 16 16 15 15 14 15 14 14 13 14 14 14 15 14 13 11 9 5 5 5 5 4 4 3 3 3 3 2 2 1 2 3 4 4 5 5 5 5 6 7 7
16 17 15 15 15 16 15 16 15 14 14 14 14 14 16 15 10 10 8 7 6 5 5 5 5 4 3 3 2 2 1 1 2 2 3 4 4 5 5 5 5 6 6
16 16 16 14 14 15 15 15 14 14 14 14 13 13 17 14 10 10 8 7 6 5 5 5 5 5 4 3 3 3 2 1 0 1 3 3 4 4 4 5 5 6 7
15 15 15 13 13 14 15 14 14 14 14 14 14 14 16 15 11 10 9 9 8 7 7 6 6 5 5 3 3 3 3 2 1 2 3 3 4 4 4 5 5 6 7
14 15 14 13 14 15 15 15 14 15 14 14 14 14 15 14 12 11 10 10 10 8 7 6 6 7 6 5 4 4 3 3 1 0 2 3 3 3 4 5 5 5 7
14 14 13 13 14 14 14 14 14 14 13 13 14 14 13 13 12 12 12 11 10 10 9 8 7 8 8 6 5 4 5 4 1 3 2 2 2 3 3 5 5 7 6
13 13 13 12 13 13 13 13 13 12 12 12 12 12 13 13 12 12 12 12 11 10 10 8 8 8 9 8 8 7 7 4 2 2 3 2 2 3 4 4 4 7 7
Wind_Direction
157 158 165 159 158 143 130 118 106 99 73 55 38 32 36 28 18 15 13 11 8 6 10 7 6 360 359 1 346 342 335 331 276 85 41 21 35 38 54 56 54 59 61
157 162 166 160 155 146 134 120 117 110 91 68 49 45 42 32 26 22 21 19 17 16 13 14 14 5 9 15 2 356 353 345 305 90 35 39 46 42 37 42 60 59 62
158 163 167 160 156 149 136 133 128 126 117 103 73 58 48 38 35 28 25 28 26 25 22 20 19 17 15 16 18 10 10 15 34 61 54 32 40 29 50 44 36 47 58
150 164 161 163 153 143 143 143 140 138 144 133 101 89 71 50 40 33 31 36 39 38 28 34 27 29 25 19 25 23 21 34 43 57 50 38 28 5 24 40 53 47 40
152 158 158 156 144 148 147 148 137 142 147 130 117 99 79 61 39 28 41 40 45 41 42 39 37 37 37 38 36 30 33 42 43 47 49 46 36 29 14 351 62 61 43
157 162 156 151 152 148 152 145 145 146 123 105 104 92 76 66 51 45 40 55 43 48 40 36 40 32 49 45 44 48 43 42 49 52 44 39 28 18 32 25 14 0 43
164 159 159 156 155 153 153 143 149 143 132 129 112 103 93 83 67 63 58 63 55 51 44 36 39 35 30 42 51 50 52 50 47 53 54 35 21 0 3 40 51 63 52
168 164 162 157 155 154 150 155 154 147 144 135 122 119 113 102 95 79 71 69 65 59 51 46 44 38 36 37 50 57 56 51 49 52 54 46 36 19 2 6 84 94 79
172 171 167 159 155 157 157 159 154 148 142 137 132 129 121 117 114 94 88 87 75 66 59 51 46 45 38 40 54 57 58 53 54 53 54 48 45 41 30 46 32 56 65
174 171 166 165 163 161 161 159 154 150 150 151 142 133 120 119 107 99 40 94 87 86 71 64 51 47 44 43 47 53 56 44 39 41 43 41 41 40 40 41 30 50 31
162 162 164 166 165 164 161 158 156 161 155 155 154 150 137 132 110 87 66 85 84 83 72 66 56 47 47 47 50 49 48 31 43 45 46 43 41 43 42 41 42 43 45
151 152 157 163 161 164 160 161 166 163 164 174 169 169 158 146 131 109 85 76 77 95 83 76 71 59 59 52 51 46 41 44 45 45 44 41 37 36 38 47 52 57 58
148 153 157 158 161 159 163 166 170 172 173 177 176 175 160 152 138 123 112 99 84 95 88 88 89 79 63 63 52 46 43 45 47 49 44 42 39 36 31 38 56 56 79
152 157 161 165 163 165 174 178 180 183 186 180 177 175 168 172 169 164 145 135 120 115 128 97 82 86 82 70 50 49 49 44 41 42 40 36 33 37 38 30 33 39 36
157 161 167 172 172 175 184 187 191 195 195 187 186 180 181 187 182 171 176 173 160 118 141 148 112 75 63 53 55 46 41 39 40 38 35 30 32 28 33 24 24 27 39
163 169 173 174 177 179 181 177 174 191 179 132 143 179 163 126 133 144 142 133 130 155 177 139 103 73 57 53 49 51 45 41 30 25 28 25 24 28 18 26 22 23 22
169 172 173 176 178 181 180 188 186 167 168 171 166 164 167 156 155 152 146 140 136 192 174 140 113 87 73 59 53 46 47 38 24 35 28 24 11 18 12 20 19 13 17
171 170 173 177 178 180 185 190 181 176 170 162 167 171 179 174 164 151 145 152 151 194 169 161 144 123 88 73 66 55 49 39 36 25 29 25 9 7 11 12 22 7 358
170 172 174 173 172 175 181 185 183 181 175 165 162 172 159 160 158 157 165 226 191 179 174 170 149 139 119 103 91 76 53 48 29 20 27 16 8 356 6 1 1 0 315
165 159 168 166 164 172 179 184 184 181 177 173 178 174 164 154 167 176 198 203 198 188 177 171 159 148 133 130 134 128 127 114 43 17 15 7 359 339 350 345 349 338 345
166 166 172 167 168 177 183 187 185 184 184 181 183 176 177 186 192 188 192 189 191 180 179 173 160 156 155 155 161 149 136 88 33 10 1 359 351 332 340 333 327 327 331
166 172 180 174 174 180 187 188 185 183 182 183 179 166 181 205 188 192 191 180 174 171 168 170 172 174 169 171 170 172 168 169 50 355 352 332 328 328 323 322 320 325 320
167 174 176 173 176 177 183 183 182 184 184 184 180 175 189 201 195 194 187 176 171 166 169 171 173 169 153 166 170 179 190 165 95 4 322 322 318 334 317 318 319 313 330
169 171 173 171 177 178 183 184 185 188 186 185 185 187 192 198 195 188 176 177 173 172 166 173 179 179 162 172 176 166 140 143 126 41 315 327 318 326 320 315 306 316 305
163 168 171 174 176 183 181 185 187 186 189 189 189 190 188 189 187 182 178 177 177 172 172 176 178 171 174 181 176 178 126 138 337 348 255 261 321 299 314 304 322 307 309
161 168 172 175 176 180 183 182 182 181 184 184 182 179 180 184 184 179 177 178 177 178 176 181 179 177 172 182 182 172 165 172 224 232 268 265 292 309 317 313 310 308 307